Showing default

COSMOS 2285, 23189

Orbit data source: Space-Track

COSMOS 2285, 23189 is a payload satellite owned by TsSKB (CIS) in LEO that was launched on Tue, 02 Aug 1994 UTC via a KOSMOS 11K65M launch vehicle from the Plesetsk Missile And Space Complex (PKMTR). Payload-class satellites include a variety of spacecraft equipped with specific instruments for various scientific and technological missions. These include communications satellites like Starlink; space stations such as the ISS; scientific satellites like the Hubble; Earth observation satellites from companies like Planet Labs, Umbra, and HawkEye 360; GPS; miniature CubeSats for education and research; and military/defense satellites.

Loading next visibility...
Identifier
23189, 1994-045A
Orbit
LEO
Country
Flag of CISCIS
Related business
Manufacturer
TsSKB
Mission
Defense Imaging
Bus & Motor
OBZOR, Unknown motor
Mass
~900 kg wet, ~900 kg dry
Launch date (UTC)
1994-08-02 (31 years ago)
Launch vehicle
KOSMOS 11K65M
Launch site
Plesetsk Missile And Space Complex (PKMTR)
Object type
Payload
Rocket body
Debris
Shape & HBR
Cyl, 2.5 m
Radar Cross Section
9.978 m², Large (>1 m²)

Expand to show TLE details & history
Last TLE update: 9 hours ago

TLE from 9 hours ago
0 COSMOS 2285
1 23189U 94045A   25260.95360221  .00000005  00000-0  29516-4 0  9990
2 23189  74.0293 203.3582 0026220 261.0931 162.2066 13.72495337559047
Epoch: 2025-09-17T22:53Z
TLE epoch observation values (Epoch: 2025-09-17T22:53:11.23Z)
Latitude
59.37163°
Longitude
-108.3179°
Altitude
1,018.737 km
Speed
7.339 km/s
True Right ascension
15h 28m 24s
True Declination
59° 13' 33"
Sunlit
Object was in daylight at epoch
Visualization orbit readout
Latitude
Unknown
Longitude
Unknown
Altitude
Unknown
Speed
Unknown
Apparent Right ascension
Unknown
Apparent Declination
Unknown
Sunlit
N/A
Visualization observer readout
Local Sidereal Time
00:45:13
Azimuth
Unknown
Elevation
Unknown
Doppler factor
Unknown
Orbital elements
Apogee altitude
1,007.636 km
Perigee altitude
969.007 km
Semi-major axis
7,366.458 km
Eccentricity
0.00262
Inclination
74.0293°
RAAN
203.3582°
Arg. of periapsis
261.0931°
True anomaly
162.29813°
Mean anomaly
162.2066°
Eccentric anomaly
162.25239°
Mean motion
3.43285 °/min
Orbital period
104.87 mins
BSTAR
0.000029516
Loading maneuver chart data...
Computing Atmospheric mass density...
Loading historical data...
Loading historical data...
Loading historical data...
Loading historical data...
Loading historical data...
Loading historical data...
Loading historical data...
Other satellites on launch #45 in the year 1994 (1994-08-02 UTC)

Documentation

Showing up to 5 results
|